sat.trackr.live / text

‹ back to catalog

STARLINK-1964

NORAD 47565 · 2021-009T

PAYLOAD ACTIVE UNKNOWN

§ Identity

Operator
Country
US
Launch date
2021-02-04
Launch site
AFETR
Launch vehicle
Mass (kg)
RCS (m²)

Purposes: comms

External: N2YO · Heavens-Above · Gunter

§ Orbital elements

Epoch: 2026-06-29T01:54:14.042016Z

Period
87.55 min
Inclination
53.0202°
Eccentricity
0.0006751
Mean motion
16.44696649 rev/d
Perigee alt
148.9 km
Apogee alt
157.7 km
Semi-major
6,531.5 km
B*
3.1722e-4
RAAN
126.8886°
Arg perigee
247.7836°
Mean anomaly
112.2496°
Rev number
29,918

§ Raw data

STARLINK-19641 47565U 21009T   26180.07932919  .10503916  12450-4  31722-3 0  99952 47565  53.0202 126.8886 0006751 247.7836 112.2496 16.44696649299185

JSON: /api/v1/satellites/47565 · /tle

For live sub-satellite position, see the globe view (requires WebGL).

§ Visibility from observer

Set your observer location to see the next 7 days of passes ≥ 10°. The values pass through the URL so the page stays shareable.

No JS? Fill the form by hand. The geolocation button needs JavaScript.